VVA226 SVMG-SVMI

Flight info

Callsign VVA226
Flight time N/A
Altitude 24000
Route ESPEP SARNI A561 CBC NETSI1
Aircraft MD83/M-SDFGIRWY/S

Departure

Time 2026-04-21 22:17
Airport Del Caribe Santiago Mariño International Airport (SVMG)

Arrival

Time N/A
Airport Maiquetía Simón Bolívar International Airport (SVMI)
Time Latitude Longitude Altitude Speed Heading
2026-04-21 21:56 10.91567 -63.96940 55 ft 0 kts 348°
2026-04-21 22:03 10.91566 -63.96940 52 ft 2 kts 348°
2026-04-21 22:03 10.91547 -63.96936 48 ft 3 kts 349°
2026-04-21 22:04 10.91526 -63.96932 52 ft 3 kts 349°
2026-04-21 22:04 10.91512 -63.96929 63 ft 1 kts 336°
2026-04-21 22:04 10.91505 -63.96924 50 ft 1 kts 305°
2026-04-21 22:04 10.91502 -63.96916 52 ft 1 kts 276°
2026-04-21 22:05 10.91501 -63.96908 51 ft 1 kts 265°
2026-04-21 22:05 10.91502 -63.96901 52 ft 0 kts 262°
2026-04-21 22:08 10.91501 -63.96906 55 ft 5 kts 262°
2026-04-21 22:09 10.91480 -63.96997 50 ft 13 kts 240°
2026-04-21 22:09 10.91423 -63.97023 56 ft 9 kts 181°
2026-04-21 22:09 10.91324 -63.97025 55 ft 0 kts 189°
2026-04-21 22:09 10.91322 -63.97028 55 ft 1 kts 221°
2026-04-21 22:10 10.91322 -63.97037 56 ft 3 kts 277°
2026-04-21 22:10 10.91348 -63.97101 57 ft 11 kts 280°
2026-04-21 22:10 10.91342 -63.97151 55 ft 6 kts 254°
2026-04-21 22:10 10.91331 -63.97192 53 ft 6 kts 254°
2026-04-21 22:11 10.91319 -63.97235 51 ft 6 kts 254°
2026-04-21 22:11 10.91307 -63.97279 53 ft 6 kts 259°
2026-04-21 22:11 10.91299 -63.97323 57 ft 7 kts 259°
2026-04-21 22:11 10.91277 -63.97436 53 ft 23 kts 257°
2026-04-21 22:12 10.91244 -63.97593 65 ft 22 kts 257°
2026-04-21 22:12 10.91215 -63.97737 65 ft 20 kts 259°
2026-04-21 22:12 10.91186 -63.97872 71 ft 19 kts 257°
2026-04-21 22:12 10.91163 -63.97988 84 ft 14 kts 258°
2026-04-21 22:13 10.91146 -63.98070 88 ft 9 kts 259°
2026-04-21 22:13 10.91133 -63.98121 92 ft 6 kts 239°
2026-04-21 22:13 10.91093 -63.98134 89 ft 8 kts 175°
2026-04-21 22:13 10.91039 -63.98117 83 ft 0 kts 144°
2026-04-21 22:15 10.91028 -63.98106 81 ft 6 kts 136°
2026-04-21 22:15 10.90986 -63.98073 71 ft 6 kts 134°
2026-04-21 22:15 10.90983 -63.98068 73 ft 1 kts 97°
2026-04-21 22:15 10.90983 -63.98064 74 ft 0 kts 96°
2026-04-21 22:16 10.90983 -63.98062 74 ft 4 kts 94°
2026-04-21 22:16 10.90996 -63.97964 69 ft 24 kts 78°
2026-04-21 22:16 10.91071 -63.97596 66 ft 88 kts 78°
2026-04-21 22:17 10.91249 -63.96761 58 ft 151 kts 75°
2026-04-21 22:17 10.91469 -63.95572 372 ft 178 kts 84°
2026-04-21 22:17 10.91395 -63.94387 1318 ft 170 kts 93°
2026-04-21 22:17 10.91318 -63.93095 1758 ft 184 kts 85°
2026-04-21 22:18 10.91539 -63.91887 2866 ft 169 kts 73°
2026-04-21 22:18 10.91716 -63.90590 3192 ft 207 kts 94°
2026-04-21 22:18 10.91487 -63.89633 3678 ft 209 kts 113°
2026-04-21 22:18 10.90683 -63.88421 4689 ft 210 kts 136°
2026-04-21 22:19 10.89490 -63.87572 5577 ft 210 kts 158°
2026-04-21 22:19 10.88073 -63.87198 6416 ft 213 kts 178°
2026-04-21 22:19 10.86607 -63.87352 7206 ft 214 kts 199°
2026-04-21 22:19 10.85260 -63.88027 7907 ft 219 kts 219°
2026-04-21 22:20 10.84201 -63.89160 8593 ft 226 kts 239°
2026-04-21 22:20 10.83564 -63.90637 9277 ft 233 kts 258°
2026-04-21 22:20 10.83421 -63.92299 9941 ft 240 kts 272°
2026-04-21 22:20 10.83501 -63.94015 10614 ft 244 kts 271°
2026-04-21 22:21 10.83531 -63.95757 11212 ft 252 kts 269°
2026-04-21 22:21 10.83481 -63.97625 11411 ft 276 kts 266°
2026-04-21 22:21 10.83351 -63.99651 11589 ft 298 kts 264°
2026-04-21 22:21 10.83144 -64.01826 11794 ft 320 kts 263°
2026-04-21 22:22 10.82863 -64.04142 11988 ft 340 kts 262°
2026-04-21 22:22 10.82521 -64.06563 12169 ft 359 kts 261°
2026-04-21 22:22 10.82122 -64.09135 12469 ft 374 kts 260°
2026-04-21 22:22 10.81692 -64.11768 13103 ft 379 kts 260°
2026-04-21 22:23 10.81251 -64.14411 13916 ft 378 kts 260°
2026-04-21 22:23 10.80815 -64.17014 14984 ft 368 kts 260°
2026-04-21 22:23 10.80636 -64.18083 15421 ft 364 kts 260°
2026-04-21 22:23 10.80207 -64.20666 16235 ft 363 kts 260°
2026-04-21 22:24 10.79788 -64.23221 16790 ft 369 kts 261°
2026-04-21 22:24 10.79368 -64.25818 17309 ft 375 kts 261°
2026-04-21 22:24 10.78946 -64.28456 17895 ft 379 kts 261°
2026-04-21 22:24 10.78522 -64.31117 18434 ft 383 kts 261°
2026-04-21 22:25 10.78091 -64.33810 18919 ft 387 kts 261°
2026-04-21 22:25 10.77650 -64.36523 19414 ft 391 kts 261°
2026-04-21 22:25 10.77204 -64.39260 19908 ft 394 kts 261°
2026-04-21 22:25 10.76758 -64.41989 20380 ft 398 kts 262°
2026-04-21 22:26 10.76307 -64.44774 20826 ft 402 kts 262°
2026-04-21 22:26 10.75855 -64.47592 21293 ft 405 kts 262°
2026-04-21 22:26 10.75399 -64.50430 21757 ft 409 kts 262°
2026-04-21 22:26 10.74938 -64.53298 22183 ft 412 kts 262°
2026-04-21 22:27 10.74476 -64.56185 22628 ft 415 kts 262°
2026-04-21 22:27 10.74011 -64.59100 23056 ft 419 kts 262°
2026-04-21 22:27 10.73551 -64.62039 23467 ft 422 kts 263°
2026-04-21 22:27 10.73168 -64.65019 23693 ft 428 kts 265°
2026-04-21 22:28 10.72841 -64.68025 23801 ft 428 kts 265°
2026-04-21 22:28 10.72530 -64.71030 23857 ft 425 kts 265°
2026-04-21 22:28 10.72221 -64.74010 23887 ft 423 kts 265°
2026-04-21 22:28 10.71907 -64.76983 23900 ft 422 kts 265°
2026-04-21 22:29 10.71586 -64.79946 23908 ft 422 kts 265°
2026-04-21 22:29 10.71258 -64.82914 23911 ft 422 kts 265°
2026-04-21 22:29 10.70926 -64.85879 23915 ft 422 kts 265°
2026-04-21 22:29 10.70589 -64.88851 23917 ft 423 kts 265°
2026-04-21 22:30 10.70253 -64.91830 23916 ft 423 kts 265°
2026-04-21 22:30 10.69920 -64.94799 23921 ft 423 kts 265°
2026-04-21 22:30 10.69586 -64.97773 23919 ft 424 kts 265°
2026-04-21 22:30 10.69252 -65.00749 23917 ft 424 kts 265°
2026-04-21 22:31 10.68919 -65.03726 23915 ft 424 kts 265°
2026-04-21 22:31 10.68585 -65.06702 23919 ft 424 kts 265°
2026-04-21 22:31 10.68250 -65.09674 23919 ft 424 kts 265°
2026-04-21 22:31 10.67910 -65.12654 23918 ft 425 kts 265°
2026-04-21 22:32 10.67570 -65.15638 23921 ft 425 kts 265°
2026-04-21 22:32 10.67231 -65.18624 23922 ft 425 kts 265°
2026-04-21 22:32 10.66891 -65.21615 23920 ft 424 kts 265°
2026-04-21 22:32 10.66555 -65.24589 23918 ft 423 kts 265°
2026-04-21 22:33 10.66223 -65.27528 23917 ft 423 kts 265°
2026-04-21 22:33 10.65886 -65.30502 23919 ft 424 kts 265°
2026-04-21 22:33 10.65551 -65.33481 23918 ft 424 kts 265°
2026-04-21 22:33 10.65215 -65.36462 23921 ft 424 kts 265°
2026-04-21 22:34 10.64876 -65.39445 23922 ft 425 kts 265°
2026-04-21 22:34 10.64537 -65.42429 23921 ft 425 kts 265°
2026-04-21 22:34 10.64199 -65.45415 23922 ft 425 kts 265°
2026-04-21 22:34 10.63861 -65.48403 23918 ft 425 kts 265°
2026-04-21 22:35 10.63520 -65.51386 23920 ft 425 kts 265°
2026-04-21 22:35 10.63176 -65.54372 23924 ft 425 kts 265°
2026-04-21 22:35 10.62831 -65.57362 23923 ft 425 kts 265°
2026-04-21 22:35 10.62489 -65.60348 23923 ft 426 kts 265°
2026-04-21 22:36 10.61804 -65.66326 23924 ft 426 kts 265°
2026-04-21 22:36 10.61465 -65.69285 23922 ft 426 kts 265°
2026-04-21 22:36 10.61121 -65.72280 23928 ft 426 kts 265°
2026-04-21 22:37 10.60778 -65.75276 23926 ft 426 kts 265°
2026-04-21 22:37 10.60436 -65.78266 23927 ft 427 kts 265°
2026-04-21 22:37 10.60094 -65.81261 23930 ft 427 kts 265°
2026-04-21 22:37 10.59751 -65.84256 23926 ft 426 kts 265°
2026-04-21 22:38 10.59408 -65.87254 23928 ft 426 kts 265°
2026-04-21 22:38 10.59063 -65.90238 23928 ft 425 kts 265°
2026-04-21 22:38 10.58714 -65.93222 23929 ft 425 kts 265°
2026-04-21 22:38 10.58365 -65.96211 23931 ft 426 kts 265°
2026-04-21 22:39 10.58020 -65.99199 23930 ft 426 kts 265°
2026-04-21 22:39 10.57698 -66.02192 23932 ft 426 kts 269°
2026-04-21 22:39 10.57970 -66.05164 23942 ft 421 kts 288°
2026-04-21 22:39 10.59160 -66.07860 23958 ft 418 kts 304°
2026-04-21 22:40 10.60819 -66.10287 23953 ft 419 kts 308°
2026-04-21 22:40 10.62550 -66.12628 23949 ft 419 kts 308°
2026-04-21 22:40 10.64323 -66.14987 23942 ft 420 kts 309°
2026-04-21 22:40 10.66095 -66.17344 23937 ft 419 kts 308°
2026-04-21 22:41 10.67848 -66.19707 23931 ft 418 kts 308°
2026-04-21 22:41 10.69576 -66.22084 23935 ft 418 kts 307°
2026-04-21 22:41 10.71283 -66.24469 23935 ft 418 kts 307°
2026-04-21 22:41 10.72999 -66.26879 23598 ft 423 kts 307°
2026-04-21 22:42 10.74702 -66.29294 23169 ft 416 kts 307°
2026-04-21 22:42 10.76375 -66.31669 22856 ft 409 kts 307°
2026-04-21 22:42 10.78023 -66.34004 22599 ft 404 kts 307°
2026-04-21 22:42 10.79662 -66.36329 22385 ft 403 kts 306°
2026-04-21 22:43 10.80906 -66.38879 22198 ft 407 kts 287°
2026-04-21 22:43 10.81242 -66.41729 22030 ft 412 kts 268°
2026-04-21 22:43 10.80876 -66.44635 21717 ft 415 kts 261°
2026-04-21 22:43 10.80334 -66.47511 21291 ft 414 kts 259°
2026-04-21 22:44 10.79759 -66.50366 20801 ft 410 kts 259°
2026-04-21 22:44 10.79187 -66.53193 20259 ft 406 kts 259°
2026-04-21 22:44 10.78818 -66.55054 19876 ft 404 kts 259°
2026-04-21 22:44 10.78182 -66.58420 19187 ft 402 kts 260°
2026-04-21 22:45 10.77684 -66.61208 18627 ft 400 kts 260°
2026-04-21 22:45 10.77206 -66.63986 18051 ft 397 kts 260°
2026-04-21 22:45 10.76738 -66.66742 17450 ft 394 kts 260°
2026-04-21 22:45 10.76274 -66.69472 16892 ft 390 kts 260°
2026-04-21 22:46 10.75812 -66.72181 16343 ft 386 kts 260°
2026-04-21 22:46 10.75355 -66.74854 15836 ft 382 kts 260°
2026-04-21 22:46 10.74900 -66.77504 15336 ft 378 kts 260°
2026-04-21 22:46 10.74448 -66.80129 14825 ft 375 kts 260°
2026-04-21 22:47 10.73999 -66.82734 14316 ft 372 kts 260°
2026-04-21 22:47 10.73553 -66.85314 13819 ft 370 kts 260°
2026-04-21 22:47 10.73108 -66.87881 13265 ft 367 kts 260°
2026-04-21 22:47 10.72703 -66.90428 12744 ft 363 kts 265°
2026-04-21 22:48 10.72579 -66.92987 12101 ft 363 kts 270°
2026-04-21 22:48 10.72593 -66.95514 11495 ft 362 kts 271°
2026-04-21 22:48 10.72634 -66.98069 10957 ft 359 kts 271°
2026-04-21 22:48 10.72675 -67.00591 10533 ft 354 kts 271°
2026-04-21 22:49 10.72707 -67.03044 10365 ft 340 kts 271°
2026-04-21 22:49 10.72726 -67.05406 10200 ft 328 kts 270°
2026-04-21 22:49 10.72733 -67.07687 10026 ft 317 kts 270°
2026-04-21 22:49 10.72733 -67.09891 9941 ft 304 kts 270°
2026-04-21 22:50 10.72729 -67.11989 9926 ft 289 kts 270°
2026-04-21 22:50 10.72722 -67.13974 9903 ft 274 kts 270°
2026-04-21 22:50 10.72714 -67.15921 9915 ft 279 kts 270°
2026-04-21 22:50 10.72709 -67.17907 9933 ft 282 kts 270°
2026-04-21 22:51 10.72704 -67.19910 9942 ft 285 kts 270°
2026-04-21 22:51 10.72704 -67.21929 9945 ft 286 kts 270°
2026-04-21 22:51 10.72711 -67.23950 9945 ft 286 kts 270°